User: anonymous   Login
Location: Unspecified
(48.1170°N, 0.0000°E)
Time: 19:31:22
(UTC+00:00)
Language:

NOAA 19 - Orbit

View from above orbital plane
View from above orbital plane
View from above satellite
View from above satellite

Ground track
Ground track

The orbit data is extracted from the following two-line orbital elements,

1 33591U 09005A   19292.52918311 -.00000019  00000-0  14997-4 0  9993
2 33591  99.1890 286.6754 0014576  37.3287 322.8893 14.12380130551245
Epoch (UTC): 19 October 2019 12:42:01
Eccentricity: 0.0014576
inclination: 99.1890°
perigee height: 841 km
apogee height: 862 km
right ascension of ascending node: 286.6754°
argument of perigee: 37.3287°
revolutions per day: 14.12380130
mean anomaly at epoch: 322.8893°
orbit number at epoch: 55124

The dashed part of the orbit path shows where the satellite is in the earth's shadow,  

DLR